Waarnemingen

Advertentie
Mijn weer
Elsenborn, België (6496): temperatuur & dauwpunt: 12.02.2019 17:00:00 - 18.02.2019 17:00:00 (CET)Elsenborn, België (6496): windsnelheid & windstoten: 12.02.2019 17:00:00 - 18.02.2019 17:00:00 (CET)Elsenborn, België (6496): windrichting: 12.02.2019 17:00:00 - 18.02.2019 17:00:00 (CET)Elsenborn, België (6496): luchtdruk: 12.02.2019 17:00:00 - 18.02.2019 17:00:00 (CET)Elsenborn, België (6496): zicht: 12.02.2019 17:00:00 - 18.02.2019 17:00:00 (CET)
Datum & Tijd tt [°C] td [°C] ff [km/u] ff [kn] fx [km/u] fx [kn] dd ppp [hPa] vv [km]
18.02.2019 17:00:00 8,9 0,0 4 2 22 12 N 1017,2 20
18.02.2019 16:00:00 9,8 -0,2 4 2 - - N 1017,1 20
18.02.2019 15:00:00 10,4 -1,5 7 4 25 14 ZZW 1017,0 20
18.02.2019 14:00:00 11,1 -0,8 4 2 22 12 N 1017,2 20
18.02.2019 13:00:00 10,7 -2,3 7 4 - - Z 1018,1 20
18.02.2019 12:00:00 10,3 -1,1 4 2 18 10 N 1019,1 20
18.02.2019 11:00:00 9,1 -0,6 4 2 14 8 N 1019,7 20
18.02.2019 10:00:00 6,7 0,0 4 2 - - N 1020,7 20
18.02.2019 09:00:00 0,8 -0,3 4 2 4 2 N 1022,2 17
18.02.2019 08:00:00 -1,9 -3,1 0 0 4 2 N 1023,2 15
18.02.2019 07:00:00 -1,6 -2,8 0 0 - - N 1023,2 15
18.02.2019 06:00:00 -0,9 -2,4 4 2 0 0 N 1023,2 17
18.02.2019 05:00:00 -0,9 -2,5 4 2 4 2 - 1023,2 17
18.02.2019 04:00:00 -0,1 -2,3 4 2 - - N 1023,1 19
18.02.2019 03:00:00 4,5 -1,4 4 2 4 2 N 1022,2 20
18.02.2019 02:00:00 2,0 -2,0 4 2 4 2 N 1023,1 20
18.02.2019 01:00:00 3,7 -1,8 4 2 - - N 1022,7 20
18.02.2019 00:00:00 6,5 -1,3 4 2 11 6 N 1022,2 20
17.02.2019 23:00:00 6,9 -1,2 4 2 11 6 N 1022,2 20
17.02.2019 22:00:00 4,9 -1,1 4 2 - - N 1022,7 20
17.02.2019 21:00:00 3,6 -1,4 4 2 4 2 N 1023,0 20
17.02.2019 20:00:00 4,6 -1,1 4 2 7 4 N 1022,8 20
17.02.2019 19:00:00 7,5 -0,8 4 2 - - N 1022,0 20
17.02.2019 18:00:00 8,9 -1,1 4 2 18 10 N 1021,3 20
17.02.2019 17:00:00 11,2 -1,8 4 2 18 10 N 1020,6 20
17.02.2019 16:00:00 12,8 -2,7 4 2 - - N 1020,5 20
17.02.2019 15:00:00 13,6 -3,7 7 4 18 10 Z 1020,5 20
17.02.2019 14:00:00 12,6 -3,4 7 4 18 10 Z 1021,2 18
17.02.2019 13:00:00 11,6 -2,9 4 2 - - N 1022,1 20
17.02.2019 12:00:00 11,2 -1,8 4 2 14 8 N 1022,5 19
17.02.2019 11:00:00 9,2 -0,8 4 2 11 6 N 1023,0 19
17.02.2019 10:00:00 7,0 -0,6 4 2 - - N 1023,7 20
17.02.2019 09:00:00 1,2 0,9 2 1 4 2 - 1025,5 6
17.02.2019 08:00:00 -0,5 -1,1 4 2 0 0 N 1026,0 3,8
17.02.2019 07:00:00 -0,3 -1,3 2 1 - - - 1025,7 3,5
17.02.2019 06:00:00 1,2 0,1 4 2 4 2 N 1025,7 9
17.02.2019 05:00:00 -0,6 -1,2 4 2 0 0 N 1026,4 0,9
17.02.2019 04:00:00 -0,7 -1,5 0 0 - - N 1026,7 4,9
17.02.2019 03:00:00 -2,3 -3,3 2 1 4 2 - 1028,0 7
17.02.2019 02:00:00 -0,8 -1,5 4 2 0 0 N 1028,0 3,6
17.02.2019 01:00:00 -1,0 -1,7 4 2 - - N 1028,5 2,6
17.02.2019 00:00:00 -0,1 -1,1 4 2 4 2 N 1028,4 8
16.02.2019 23:00:00 0,3 -0,9 4 2 4 2 N 1028,5 9
16.02.2019 22:00:00 1,6 -0,2 0 0 - - N 1028,2 10
16.02.2019 21:00:00 2,4 -0,3 4 2 4 2 N 1028,0 15
16.02.2019 20:00:00 2,7 -0,5 4 2 4 2 N 1028,0 19
16.02.2019 19:00:00 5,0 -0,1 4 2 - - N 1027,7 20
16.02.2019 18:00:00 10,1 -0,1 4 2 7 4 N 1026,2 20
16.02.2019 17:00:00 13,0 0,0 4 2 11 6 N 1025,4 20
16.02.2019 16:00:00 14,5 -3,9 4 2 - - N 1025,4 20
16.02.2019 15:00:00 14,5 -4,3 7 4 18 10 WZW 1025,5 20
16.02.2019 14:00:00 13,5 -3,4 7 4 18 10 WZW 1026,0 20
16.02.2019 13:00:00 11,9 0,0 4 2 - - N 1026,7 17
16.02.2019 12:00:00 9,7 0,0 4 2 14 8 N 1027,5 17
16.02.2019 11:00:00 8,5 -1,0 7 4 18 10 ZW 1027,7 19
16.02.2019 10:00:00 7,0 -1,0 4 2 - - N 1028,0 20
16.02.2019 09:00:00 4,4 -1,4 4 2 11 6 N 1028,7 19
16.02.2019 08:00:00 0,7 -2,0 4 2 4 2 N 1029,5 20
16.02.2019 07:00:00 0,7 -2,0 4 2 - - N 1029,0 20
16.02.2019 06:00:00 1,6 -2,0 4 2 7 4 N 1029,0 20
16.02.2019 05:00:00 1,5 -2,2 4 2 7 4 N 1029,2 20
16.02.2019 04:00:00 2,1 -2,2 4 2 - - N 1029,5 20
16.02.2019 03:00:00 3,2 -2,1 4 2 4 2 N 1029,7 20
16.02.2019 02:00:00 3,2 -2,0 4 2 7 4 N 1029,7 20
16.02.2019 01:00:00 3,9 -1,7 4 2 - - N 1029,5 20
16.02.2019 00:00:00 3,5 -1,6 4 2 4 2 N 1029,9 20
15.02.2019 23:00:00 2,8 -1,8 4 2 7 4 N 1030,5 20
15.02.2019 22:00:00 3,0 -2,0 4 2 - - N 1030,5 20
15.02.2019 21:00:00 4,2 -2,3 4 2 4 2 N 1030,2 20
15.02.2019 20:00:00 3,6 -3,0 4 2 4 2 N 1030,7 20
15.02.2019 19:00:00 6,2 -4,3 4 2 - - N 1030,2 20
15.02.2019 18:00:00 10,9 -4,8 4 2 7 4 N 1029,0 20
15.02.2019 17:00:00 14,6 -5,1 4 2 14 8 N 1028,4 20
15.02.2019 16:00:00 15,6 -5,6 4 2 - - N 1028,7 20
15.02.2019 15:00:00 16,3 -6,3 4 2 14 8 N 1029,0 20
15.02.2019 14:00:00 15,7 -5,8 4 2 14 8 N 1029,9 20
15.02.2019 13:00:00 14,7 -2,8 4 2 - - N 1030,9 20
15.02.2019 12:00:00 13,6 -4,3 4 2 14 8 N 1031,5 20
15.02.2019 11:00:00 11,8 -4,4 4 2 11 6 N 1032,2 20
15.02.2019 10:00:00 5,4 0,2 4 2 - - N 1033,9 20
15.02.2019 09:00:00 0,0 -5,7 0 0 0 0 N 1035,5 20
15.02.2019 08:00:00 -3,8 -7,5 4 2 4 2 N 1036,5 20
15.02.2019 07:00:00 -3,3 -7,6 4 2 - - N 1036,2 20
15.02.2019 06:00:00 -3,3 -7,6 0 0 0 0 N 1036,5 20
15.02.2019 05:00:00 -2,6 -8,5 4 2 0 0 N 1036,2 20
15.02.2019 04:00:00 -1,9 -7,3 4 2 - - N 1036,2 20
15.02.2019 03:00:00 -2,1 -6,4 4 2 0 0 N 1036,7 20
15.02.2019 02:00:00 0,4 -8,6 4 2 4 2 N 1036,4 20
15.02.2019 01:00:00 -1,5 -6,7 4 2 - - N 1036,7 20
15.02.2019 00:00:00 -0,7 -5,1 4 2 0 0 N 1036,7 20
14.02.2019 23:00:00 -1,9 -5,3 4 2 0 0 N 1037,0 20
14.02.2019 22:00:00 -1,4 -5,4 4 2 - - N 1037,0 20
14.02.2019 21:00:00 -1,1 -6,0 4 2 4 2 N 1037,2 20
14.02.2019 20:00:00 0,5 -6,5 4 2 4 2 N 1037,0 20
14.02.2019 19:00:00 2,8 -7,3 4 2 - - N 1036,5 20
14.02.2019 18:00:00 7,5 -9,6 4 2 4 2 N 1035,0 20
14.02.2019 17:00:00 11,5 -9,9 4 2 11 6 N 1034,2 20
14.02.2019 16:00:00 12,6 -11,5 4 2 - - N 1034,2 20
14.02.2019 15:00:00 12,9 -12,0 4 2 14 8 N 1034,2 20
14.02.2019 14:00:00 13,0 -14,4 4 2 11 6 N 1034,7 20
14.02.2019 13:00:00 12,3 -12,5 4 2 - - N 1035,4 20
14.02.2019 12:00:00 11,5 -9,2 4 2 7 4 N 1036,0 20
14.02.2019 11:00:00 5,7 0,9 4 2 4 2 N 1037,2 20
14.02.2019 10:00:00 0,6 -0,5 0 0 - - N 1038,7 20
14.02.2019 09:00:00 -2,9 -3,4 0 0 0 0 N 1039,7 20
14.02.2019 08:00:00 -5,3 -6,1 0 0 4 2 N 1039,9 20
14.02.2019 07:00:00 -4,8 -5,8 4 2 - - N 1039,5 20
14.02.2019 06:00:00 -4,6 -5,5 4 2 0 0 N 1039,2 20
14.02.2019 05:00:00 -4,3 -5,2 0 0 0 0 N 1039,0 20
14.02.2019 04:00:00 -4,2 -4,9 4 2 - - N 1038,9 20
14.02.2019 03:00:00 -3,8 -4,5 0 0 0 0 N 1038,7 20
14.02.2019 02:00:00 -3,6 -4,3 4 2 0 0 N 1039,0 20
14.02.2019 01:00:00 -3,3 -3,9 4 2 - - N 1038,7 16
14.02.2019 00:00:00 -2,8 -3,3 4 2 4 2 N 1038,5 13
13.02.2019 23:00:00 -2,3 -2,9 4 2 0 0 N 1038,7 7
13.02.2019 22:00:00 -1,8 -2,3 4 2 - - - 1038,7 5
13.02.2019 21:00:00 -1,4 -1,9 4 2 0 0 N 1038,5 8
13.02.2019 20:00:00 -0,9 -1,8 4 2 4 2 N 1038,4 9
13.02.2019 19:00:00 0,8 -0,7 4 2 - - N 1037,7 14
13.02.2019 18:00:00 2,0 -0,8 4 2 4 2 N 1037,5 20
13.02.2019 17:00:00 3,2 -0,7 4 2 7 4 N 1036,9 20
13.02.2019 16:00:00 4,1 -0,8 4 2 - - N 1036,5 20
13.02.2019 15:00:00 5,2 -0,3 4 2 7 4 N 1036,5 20
13.02.2019 14:00:00 4,7 0,3 4 2 11 6 N 1036,9 20
13.02.2019 13:00:00 3,6 -0,9 4 2 - - N 1037,2 20
13.02.2019 12:00:00 1,0 -0,3 4 2 7 4 N 1038,2 11
13.02.2019 11:00:00 -0,4 -0,6 2 1 7 4 - 1038,5 7
13.02.2019 10:00:00 -2,3 -2,3 4 2 - - N 1039,2 4,0
13.02.2019 09:00:00 -3,7 -3,7 4 2 4 2 N 1039,7 2,7
13.02.2019 08:00:00 -3,7 -3,8 4 2 7 4 N 1039,2 0,4
13.02.2019 07:00:00 -3,8 -4,1 4 2 - - N 1038,9 2,4
13.02.2019 06:00:00 -3,4 -3,4 4 2 7 4 N 1038,9 0,2
13.02.2019 05:00:00 -3,7 -4,1 4 2 4 2 N 1038,7 2,6
13.02.2019 04:00:00 -3,1 -3,1 4 2 - - N 1039,0 1,8
13.02.2019 03:00:00 -2,6 -2,6 4 2 7 4 N 1039,5 0,3
13.02.2019 02:00:00 -2,2 -2,2 4 2 7 4 N 1039,0 0,2
13.02.2019 01:00:00 -1,8 -1,8 4 2 - - N 1038,5 0,4
13.02.2019 00:00:00 -1,6 -1,6 2 1 7 4 - 1038,7 0,7
12.02.2019 23:00:00 -1,1 -1,4 4 2 11 6 N 1038,2 6
12.02.2019 22:00:00 0,0 -0,8 4 2 - - N 1037,5 11
12.02.2019 21:00:00 0,0 -0,5 4 2 7 4 - 1037,7 10
12.02.2019 20:00:00 -0,9 -1,9 4 2 7 4 N 1037,5 11
12.02.2019 19:00:00 0,9 -0,8 4 2 - - N 1037,0 20
12.02.2019 18:00:00 2,0 -0,5 4 2 11 6 N 1036,5 20
12.02.2019 17:00:00 2,6 -0,2 4 2 18 10 N 1036,0 20

tt = temperatuur
td = dauwpunt
ff = windsnelheid
fx = windstoten
dd = windrichting
ppp = luchtdruk
vv = zicht

Weerstations in de omgeving